Regional Weather Roundup
Issued by NWS Wakefield, VA

Home | Current Version | Previous Version | Graphics & Text | Print | Product List | Glossary On
Versions: 1 2 3 4 5 6 7 8 9 10 11 12 13 14 15 16 17 18 19 20 21 22 23 24 25 26 27 28 29 30 31 32 33 34 35 36 37 38 39 40 41 42 43 44 45 46 47 48 49 50
813
ASUS41 KAKQ 162216
RWRAKQ

REGIONAL WEATHER ROUNDUP
NATIONAL WEATHER SERVICE WAKEFIELD VA
600 PM EDT WED AUG 16 2017

Note: "fair" indicates few or no clouds below 12,000 feet with no
significant weather and/or obstructions to visibility. * = Denotes
station may not report precipitation (e.g., rain,snow,etc.),
thunder or fog.

VAZ042-051-052>054-056-162300-
NORTHERN VIRGINIA

CITY           SKY/WX    TMP DP  RH WIND       PRES   REMARKS
WASH NATIONAL  PTSUNNY   88  66  48 N8        29.98R
DULLES         PTSUNNY   85  71  63 NE10      29.99R
FORT BELVOIR   SUNNY     84  74  71 CALM      29.97S
QUANTICO       PTSUNNY   88  73  61 S6        29.98S HX  95
FREDERICKSBRG* MOSUNNY   88  70  53 S3        29.97S
STAFFORD*      MOSUNNY   85  74  68 CALM      30.02S
WARRENTON      NOT AVBL
CULPEPER*      MOSUNNY   88  71  56 CALM      29.99S
MANASSAS*      MOSUNNY   89  69  51 N5        29.98S
LEESBURG*      CLOUDY    86  72  62 NE6       30.00S
WINCHESTER     CLOUDY    84  68  58 NE6       30.01R
FRONT ROYAL*   CLOUDY    86  68  54 CALM      30.00S
LURAY*         MOCLDY    84  68  58 N5        30.01S
$$

VAZ048-049-060>072-079>083-162300-
CENTRAL AND SOUTH CENTRAL VIRGINIA

CITY           SKY/WX    TMP DP  RH WIND       PRES   REMARKS
RICHMOND       PTSUNNY   86  70  58 S6        29.98S
CHESTERFIELD*  FAIR      88  71  57 S6        29.99S
PETERSBURG*    MOSUNNY   87  69  54 S5        29.99S
HANOVER        MOSUNNY   87  72  60 CALM      29.99S
TAPPAHANNOCK*  MOSUNNY   87  68  52 CALM      29.99S
QUINTON*       FAIR     N/A N/A N/A CALM      29.97S
CHARLOTTSVILLE MOSUNNY   90  67  46 E5        29.99S
GORDONSVILLE*  CLEAR     87  72  60 SE3       29.99S
ORANGE*        MOSUNNY   86  68  54 CALM      29.98F
LOUISA*        SUNNY     88  70  55 CALM      29.99S
BUMPASS*       FAIR      87  72  60 CALM      29.99S
FARMVILLE*     PTSUNNY   90  63  41 S7        29.98S
CREWE*         FAIR      87  63  44 CALM      29.99F
FORT PICKETT*  FAIR     N/A N/A N/A S7        30.00S
CHASE CITY*    MOCLDY    80  71  74 NE7       30.01R
CLARKSVILLE*   FAIR      88  72  58 E5        29.99S
SOUTH HILL*    MOSUNNY   83  74  74 CALM      30.05F
LAWRENCEVILLE* FAIR      85  73  66 CALM      30.00S
EMPORIA*       SUNNY     88  70  55 E6        30.00S
$$

VAZ088>098-162300-
SOUTHEAST VIRGINIA

CITY           SKY/WX    TMP DP  RH WIND       PRES   REMARKS
NORFOLK        SUNNY     85  68  56 NE3       29.99S
VIRGINIA BEACH MOSUNNY   81  72  74 E5        29.99R
NORFOLK NAVAL  MOSUNNY   85  68  56 E6        30.00S
WEST POINT*    SUNNY     87  69  53 SE5       29.99S
SALUDA*        FAIR      84  76  77 SE6       29.98S
NEWPORT NEWS   SUNNY     85  69  58 E6        29.98S
LANGLEY AFB    SUNNY     84  71  64 SE8       29.98S
FORT EUSTIS    SUNNY     88  74  62 S7        29.96S HX  97
WILLIAMSBURG*  SUNNY     90  72  55 CALM      29.99S HX  96
HR EXEC AP*    FAIR      88  66  48 E3          N/A
FRANKLIN*      SUNNY     87  68  53 CALM      29.99S
US460-WAKEFLD  SUNNY     89  71  55 CALM      29.99S HX  95
$$

VAZ020-022-025-037-045-162300-
WEST CENTRAL AND SOUTHWEST VIRGINIA

CITY           SKY/WX    TMP DP  RH WIND       PRES   REMARKS
STAUNTON*      MOSUNNY   84  64  51 CALM      30.05S
WAYNESBORO*    CLOUDY    83  67  58 CALM      30.04F
HOT SPRINGS VA PTSUNNY   73  55  53 CALM      30.19F
LYNCHBURG      SUNNY     89  61  38 CALM      30.01F
DANVILLE       SUNNY     87  73  62 CALM      30.00S
SOUTH BOSTON*  FAIR      86  72  62 CALM      29.99F
MARTINSVILLE   CLOUDY    83  74  76 CALM      30.05R
ROANOKE        MOSUNNY   89  65  44 S9        30.03F
BLACKSBURG     PTSUNNY   85  66  52 CALM      30.11F
DUBLIN*        CLOUDY    82  67  61 E3        30.10S
MARION*        CLOUDY    80  62  53 W7        30.15S
HILLSVILLE*    CLOUDY    69  65  85 CALM      30.12F
RICHLANDS*     MOCLDY    75  69  82 CALM      30.14F
WISE*          PTSUNNY   73  70  88 CALM      30.13F
ABINGDON*      CLOUDY    80  72  76 NE3       30.09F
$$

MDZ021>025-VAZ099-100-162300-
SOUTHERN MARYLAND AND THE DELMARVA PENINSULA

CITY           SKY/WX    TMP DP  RH WIND       PRES   REMARKS
PATUXENT RIVER PTSUNNY   83  77  82 SE5       29.97S
BAY BRIDGE APT PTSUNNY   86  73  66 SE6       29.97S
LEONARDTOWN    MOSUNNY   82  73  74 CALM      29.99S
DOVER          NOT AVBL
GEORGETOWN     SUNNY     83  72  69 SE9       29.98R
EASTON         MOSUNNY   88  68  51 CALM      30.01S
CAMBRIDGE      MOSUNNY   86  70  58 VRB3      29.97S
SALISBURY      CLOUDY    86  72  62 N3        29.97R
OCEAN CITY     CLOUDY    78  73  84 VRB7      29.99S
WALLOPS ISLAND SUNNY     80  74  81 S12       29.98F
ACCOMACK*      SUNNY     81  75  82 S7        29.99S
$$

NCZ012>017-030>032-162300-
NORTH CENTRAL AND EASTERN NORTH CAROLINA

CITY           SKY/WX    TMP DP  RH WIND       PRES   REMARKS
ROANOKE RAPIDS FAIR      86  72  62 CALM      29.99F
RALEIGH        PTSUNNY   89  69  51 E5        30.00S
ELIZABETH CITY SUNNY     84  77  79 E9        29.99R
AHOSKIE*         N/A     85  71  63 N3        30.00R
EDENTON*       MOSUNNY   85  77  75 CALM      29.99S HX  96
CURRITUCK*     SUNNY     83  52  33 CALM      30.00S
KILL DEVIL HLS MOSUNNY   80  74  82 CALM      29.99S
MANTEO         PTSUNNY   80  74  81 E9        30.00S
CAPE HATTERAS  SUNNY     84  75  74 NE9       29.98F
TARBORO*       NOT AVBL
GOLDSBORO      MOSUNNY   90  75  62 NE5       29.98S HX 100
WASHINGTON     SUNNY     88  73  60 N5        29.98S HX  96
GREENVILLE     SUNNY     88  72  58 CALM      30.00S
NEW BERN       SUNNY     87  75  67 N6        29.99S HX  96
WILMINGTON     CLOUDY    84  78  82 SE5       29.98S HX  95
$$

VAZ048-162300-
ELSEWHERE

CITY           SKY/WX    TMP DP  RH WIND       PRES   REMARKS
HARRISBURG PA  MOSUNNY   84  63  49 VRB5      29.98S
BALTIMORE      MOSUNNY   86  69  56 NE9G17    29.97S
ANNAPOLIS      MOSUNNY   86  76  71 SE7       29.97S HX  96
ANDREWS AFB    SUNNY     85  69  57 E3        29.97S
PHILADELPHIA   MOSUNNY   87  62  43 NW10      29.96S
HENDERSON NC   SUNNY     85  65  51 SE3       30.00F
GREENSBORO     CLOUDY    87  72  60 E6        30.01S
ROCKY MOUNT    SUNNY     89  71  55 VRB3      29.99F HX  95
$$

VAZ100-162300-
MARINE

STATION/POSITION TIME  TEMP    WIND        PRES    WAVE   SWELL
                       AIR SEA DIR/SP/G            HT/PER HT/PER
                 (UTC) (F)     (DEG/KT/KT) (MB)    (FT/S) (FT/S)
BRANDYWINE LGT   2148          190/  8/  8 1015.3R
CAPE MAY NJ      2148   81 78  220/  6/  8 1014.4R
LEWES DE         2148   82 79  190/  5/  7 1014.7S
15NM E FENWICK I 2150   78 79  160/  8/ 10 1015.6F   2/11   2/11
OCEAN-CITY-INLET 2148   79 78  190/  8/ 10 1015.7S
WACHAPREAGUE VA  2148   79 83  180/  7/  9 1015.5S
THOMAS POINT MD  2200   83 80  180/  5/  6   N/A
GOOSES REEF MD   2200   85 83  220/  6/  8 1015.8    0
COVE POINT MD    2148   81     180/  7/  8 1015.7S
SOLOMONS ISLAND  2148   83 83  130/  6/  7   N/A
BISHOPS HEAD MD  2148   84 87  210/  6/  6 1015.3S
PINEY POINT MD   2148          210/  2/  2   N/A
POTOMAC MD       2200   83 83  160/  8/ 10 1014.4
CAMBRIDGE MD     2148   89 84              1015.9S
LEWISETTA VA     2148   84 83  170/  5/  6 1015.1R
RAPPAHANNOCK LGT 2148          160/  6/  7 1016.1S
STINGRAY PT      2200   82 82  170/  6/  6 1015.7    0
YORK RVR RNG VA  2148   79     170/  9/ 11 1015.9R
YORKTOWN VA      2148   83 81  100/  7/  8 1015.1R
JAMESTOWN VA     2200      84  150/  4/  4   N/A     0
DOMINION TERM VA 2148   81      90/  6/  9 1015.6F
KIPTOPEKE VA     2148      79  180/  5/  6   N/A
CHES BAY BRIDGE  2148   78 78  120/  7/  8 1015.6S
CAPE HENRY VA    2148   79      90/  5/  5   N/A
WILLOUBY STN VA  2148          100/  7/  7 1015.6S
S CRANEY ISL VA  2148   84      50/  4/  5 1015.3F
CAPE HENRY BUOY  2130      80                N/A     2/ 8
1ST LANDING BUOY 2200   79 79              1015.4    1/ 4
64NM E OF VA BCH 2150   78 79   50/  6/  6 1016.1R   2/ 8   2/ 8
DUCK PIER NC     2148   79 79   60/  9/ 10 1015.4S
44100 DUCK FRF   2105      79                N/A     3/ 7
44056 DUCK FRF   2130      79                N/A     2/ 8
OREGON INLET NC  2148           40/  8/ 10 1015.6S
HATTERAS NC      2148   81 84   40/  9/ 12 1015.2F
DIAMOND SHLS NC  2150   81 84   30/ 12/ 16 1015.0R   3/ 7   2/ 7
CAPE LOOKOUT NC  2200   81      70/  7/  8 1014.9R
$$




USA.gov is the U.S. government's official web portal to all federal, state and local government web resources and services.